FW2032 Weather Reports


Display with metric or nautical units.
time (UTC)temp
F
wind
direction
speed
MPH
gust
MPH
rain 1hr
in
rain 24hr
in
rain mn
in
humidity
%
barometer
mb
20260507155533 60 242 14.0 23.0 0.00 0.00 0.00 62 1016.1
20260507155029 60 246 10.0 18.0 0.00 0.00 0.00 62 1016.0
20260507154545 59 248 12.0 21.0 0.00 0.00 0.00 63 1016.0
20260507154030 59 278 11.0 21.0 0.00 0.00 0.00 64 1016.0
20260507153529 59 240 11.0 22.0 0.00 0.00 0.00 62 1016.1
20260507153042 58 264 9.0 22.0 0.00 0.00 0.00 65 1016.1
20260507152529 58 261 11.0 22.0 0.00 0.00 0.00 64 1016.1
20260507152031 58 242 11.0 20.0 0.00 0.00 0.00 65 1016.3
20260507151548 58 275 10.0 19.0 0.00 0.00 0.00 66 1016.3
20260507151033 57 250 10.0 20.0 0.00 0.00 0.00 67 1016.5
20260507150529 57 246 11.0 25.0 0.00 0.00 0.00 67 1016.4
20260507150047 57 243 11.0 25.0 0.00 0.00 0.00 66 1016.5
20260507145529 57 259 10.0 19.0 0.00 0.00 0.00 68 1016.6
20260507145031 56 248 10.0 19.0 0.00 0.00 0.00 67 1016.6
20260507144607 56 269 10.0 19.0 0.00 0.00 0.00 68 1016.5
20260507144030 56 281 12.0 19.0 0.00 0.00 0.00 67 1016.7
20260507143529 56 250 11.0 17.0 0.00 0.00 0.00 68 1016.7
20260507143048 55 250 8.0 19.0 0.00 0.00 0.00 70 1016.8
20260507142529 55 278 10.0 19.0 0.00 0.00 0.00 70 1016.7
20260507142034 55 280 11.0 18.0 0.00 0.00 0.00 69 1017.0
20260507141602 55 244 8.0 21.0 0.00 0.00 0.00 72 1016.9
20260507141030 54 257 7.0 21.0 0.00 0.00 0.00 73 1017.0
20260507140534 54 257 9.0 21.0 0.00 0.00 0.00 72 1016.8
20260507140042 53 265 11.0 16.0 0.00 0.00 0.00 73 1016.8
20260507135533 53 259 8.0 19.0 0.00 0.00 0.00 73 1016.8
20260507135030 53 252 11.0 19.0 0.00 0.00 0.00 73 1016.8
20260507134542 53 254 7.0 16.0 0.00 0.00 0.00 75 1016.8
20260507134031 52 248 9.0 16.0 0.00 0.00 0.00 74 1017.0
20260507133530 52 253 7.0 14.0 0.00 0.00 0.00 74 1016.8
20260507133047 51 245 7.0 15.0 0.00 0.00 0.00 76 1016.6
20260507132530 51 252 8.0 15.0 0.00 0.00 0.00 77 1016.7
20260507132029 51 234 8.0 15.0 0.00 0.00 0.00 78 1016.6
20260507131544 50 269 8.0 15.0 0.00 0.00 0.00 77 1016.6
20260507131031 50 252 7.0 12.0 0.00 0.00 0.00 79 1016.7
20260507130534 50 243 7.0 13.0 0.00 0.00 0.00 80 1016.6
20260507130046 49 247 6.0 13.0 0.00 0.00 0.00 80 1016.6
20260507125530 49 234 6.0 12.0 0.00 0.00 0.00 81 1016.6
20260507125033 49 249 7.0 12.0 0.00 0.00 0.00 82 1016.7
20260507124540 48 360 4.0 10.0 0.00 0.00 0.00 83 1016.8
20260507124033 48 240 5.0 10.0 0.00 0.00 0.00 83 1016.7
20260507123530 47 243 6.0 10.0 0.00 0.00 0.00 84 1016.8
20260507123047 47 238 6.0 10.0 0.00 0.00 0.00 84 1017.0
20260507122529 46 225 5.0 10.0 0.00 0.00 0.00 85 1016.8
20260507122030 46 360 3.0 8.0 0.00 0.00 0.00 86 1016.8
20260507121542 45 360 3.0 8.0 0.00 0.00 0.00 86 1016.7
20260507121030 45 360 5.0 8.0 0.00 0.00 0.00 86 1016.5
20260507120532 44 360 4.0 8.0 0.00 0.00 0.00 86 1016.6
20260507120047 44 360 4.0 9.0 0.00 0.00 0.00 86 1016.5
20260507115529 44 360 5.0 10.0 0.00 0.00 0.00 87 1016.5
20260507115029 43 228 6.0 10.0 0.00 0.00 0.00 87 1016.5
20260507114550 43 238 6.0 11.0 0.00 0.00 0.00 87 1016.5
20260507114034 43 241 6.0 11.0 0.00 0.00 0.00 87 1016.6
20260507113533 43 238 6.0 11.0 0.00 0.00 0.00 87 1016.5
20260507113041 42 241 6.0 9.0 0.00 0.00 0.00 87 1016.4
20260507112533 42 238 5.0 10.0 0.00 0.00 0.00 87 1016.3
20260507112030 42 243 6.0 10.0 0.00 0.00 0.00 88 1016.4
20260507111543 42 239 6.0 10.0 0.00 0.00 0.00 87 1016.5
20260507111029 42 238 5.0 10.0 0.00 0.00 0.00 87 1016.5
20260507110530 42 240 5.0 9.0 0.00 0.00 0.00 87 1016.5
20260507110047 42 241 5.0 9.0 0.00 0.00 0.00 87 1016.5
20260507105529 42 240 4.0 9.0 0.00 0.00 0.00 87 1016.5
20260507105034 42 242 4.0 8.0 0.00 0.00 0.00 86 1016.4
20260507104546 42 238 4.0 8.0 0.00 0.00 0.00 86 1016.4
20260507104031 42 243 4.0 8.0 0.00 0.00 0.00 85 1016.5
20260507103530 42 238 4.0 9.0 0.00 0.00 0.00 85 1016.5
20260507103044 43 236 4.0 9.0 0.00 0.00 0.00 85 1016.6
20260507102529 43 222 4.0 9.0 0.00 0.00 0.00 85 1016.6
20260507102031 43 220 4.0 8.0 0.00 0.00 0.00 85 1016.6
20260507101547 42 232 4.0 8.0 0.00 0.00 0.00 85 1016.6
20260507101030 42 235 4.0 7.0 0.00 0.00 0.00 84 1016.6
20260507100530 43 230 5.0 9.0 0.00 0.00 0.00 84 1016.7
20260507100043 43 244 4.0 9.0 0.00 0.00 0.00 84 1016.7
20260507095530 43 360 5.0 8.0 0.00 0.00 0.00 84 1016.9
20260507095033 43 246 5.0 8.0 0.00 0.00 0.00 84 1016.8
20260507094547 43 360 5.0 8.0 0.00 0.00 0.00 83 1016.8
20260507094029 43 360 5.0 8.0 0.00 0.00 0.00 83 1016.9
20260507093529 44 238 4.0 8.0 0.00 0.00 0.00 82 1016.8
20260507093046 44 242 4.0 9.0 0.00 0.00 0.00 82 1016.9
20260507092529 44 242 4.0 9.0 0.00 0.00 0.00 82 1016.8
20260507092030 44 360 4.0 8.0 0.00 0.00 0.00 83 1016.9
20260507091548 43 360 5.0 8.0 0.00 0.00 0.00 82 1016.8
20260507091032 44 236 4.0 8.0 0.00 0.00 0.00 81 1017.0
20260507090532 44 360 4.0 8.0 0.00 0.00 0.00 81 1017.0
20260507090040 44 248 3.0 7.0 0.00 0.00 0.00 81 1017.0
20260507085529 44 360 3.0 7.0 0.00 0.00 0.00 81 1017.0
20260507085030 44 360 3.0 7.0 0.00 0.00 0.00 81 1017.0
20260507084544 44 360 2.0 7.0 0.00 0.00 0.00 81 1017.0
20260507084029 44 245 2.0 6.0 0.00 0.00 0.00 81 1017.0
20260507083529 44 244 3.0 8.0 0.00 0.00 0.00 80 1017.0
20260507083043 44 360 4.0 8.0 0.00 0.00 0.00 79 1017.0
20260507082530 45 360 3.0 8.0 0.00 0.00 0.00 78 1017.1
20260507082029 45 252 3.0 8.0 0.00 0.00 0.00 78 1017.1
20260507081542 45 360 3.0 5.0 0.00 0.00 0.00 78 1017.1
20260507081029 45 360 3.0 8.0 0.00 0.00 0.00 78 1017.2
20260507080529 45 360 3.0 8.0 0.00 0.00 0.00 77 1017.1
20260507080044 45 252 3.0 6.0 0.00 0.00 0.00 77 1017.1
20260507075529 46 259 2.0 8.0 0.00 0.00 0.00 76 1017.1
20260507075033 46 360 3.0 8.0 0.00 0.00 0.00 76 1017.2
20260507074541 46 245 3.0 8.0 0.00 0.00 0.00 76 1017.2
20260507074030 46 248 3.0 7.0 0.00 0.00 0.00 76 1017.3
20260507073532 46 249 3.0 6.0 0.00 0.00 0.00 76 1017.3
20260507073040 46 260 3.0 5.0 0.00 0.00 0.00 76 1017.3
20260507072530 46 360 2.0 6.0 0.00 0.00 0.00 75 1017.4
20260507072029 46 360 3.0 7.0 0.00 0.00 0.00 75 1017.4
20260507071538 46 360 2.0 7.0 0.00 0.00 0.00 74 1017.4
20260507071029 46 360 3.0 7.0 0.00 0.00 0.00 74 1017.4
20260507070533 46 244 3.0 7.0 0.00 0.00 0.00 73 1017.5
20260507070044 46 243 3.0 9.0 0.00 0.00 0.00 73 1017.5
20260507065529 47 248 3.0 9.0 0.00 0.00 0.00 72 1017.6
20260507065029 47 244 3.0 7.0 0.00 0.00 0.00 72 1017.6
20260507064544 47 247 3.0 7.0 0.00 0.00 0.00 72 1017.6
20260507064029 47 360 4.0 7.0 0.00 0.00 0.00 72 1017.6
20260507063530 47 360 3.0 7.0 0.00 0.00 0.00 71 1017.7
20260507063045 47 253 3.0 7.0 0.00 0.00 0.00 71 1017.6
20260507062530 47 360 3.0 8.0 0.00 0.00 0.00 70 1017.7
20260507062032 47 360 4.0 8.0 0.00 0.00 0.00 70 1017.8
20260507061542 48 360 3.0 8.0 0.00 0.00 0.00 69 1017.8
20260507061028 48 360 3.0 8.0 0.00 0.00 0.00 68 1017.9
20260507060529 48 360 3.0 6.0 0.00 0.00 0.00 68 1017.8
20260507060050 48 360 3.0 8.0 0.00 0.00 0.00 67 1017.9
20260507055534 48 360 2.0 8.0 0.00 0.00 0.00 67 1017.9
20260507055029 48 360 3.0 8.0 0.00 0.00 0.00 67 1018.0
20260507054546 48 360 3.0 6.0 0.00 0.00 0.00 67 1018.0
20260507054029 48 360 3.0 6.0 0.00 0.00 0.00 67 1018.0
20260507053529 48 360 4.0 6.0 0.00 0.00 0.00 67 1018.0
20260507053052 48 360 4.0 6.0 0.00 0.00 0.00 67 1018.1
20260507052529 49 360 4.0 8.0 0.00 0.00 0.00 66 1018.0
20260507052029 49 360 4.0 8.0 0.00 0.00 0.00 66 1018.1
20260507051540 49 360 4.0 8.0 0.00 0.00 0.00 65 1018.1
20260507051032 50 360 4.0 8.0 0.00 0.00 0.00 65 1018.1
20260507050531 50 360 4.0 8.0 0.00 0.00 0.00 63 1018.1
20260507050039 50 360 4.0 8.0 0.00 0.00 0.00 63 1018.1
20260507045530 50 360 4.0 8.0 0.00 0.00 0.00 62 1018.0
20260507045030 50 360 4.0 10.0 0.00 0.00 0.00 62 1018.0
20260507044555 50 360 4.0 10.0 0.00 0.00 0.00 63 1018.1
20260507044029 50 360 5.0 10.0 0.00 0.00 0.00 61 1018.2
20260507043529 50 360 4.0 8.0 0.00 0.00 0.00 60 1018.2
20260507043044 50 360 4.0 8.0 0.00 0.00 0.00 60 1018.1
20260507042530 51 360 4.0 9.0 0.00 0.00 0.00 59 1018.0
20260507042029 51 360 5.0 9.0 0.00 0.00 0.00 57 1018.1
20260507041548 50 360 5.0 8.0 0.00 0.00 0.00 57 1018.1
20260507041029 50 360 4.0 6.0 0.00 0.00 0.00 59 1018.1
20260507040530 50 360 5.0 6.0 0.00 0.00 0.00 56 1018.1
20260507040042 50 360 3.0 5.0 0.00 0.00 0.00 58 1018.1
20260507035529 50 360 3.0 5.0 0.00 0.00 0.00 58 1018.2
20260507035030 51 360 3.0 6.0 0.00 0.00 0.00 58 1018.0
20260507034542 51 360 4.0 8.0 0.00 0.00 0.00 56 1018.2
20260507034029 51 360 5.0 8.0 0.00 0.00 0.00 54 1018.2
20260507033530 51 360 5.0 8.0 0.00 0.00 0.00 55 1018.3
20260507033039 50 360 4.0 8.0 0.00 0.00 0.00 56 1018.3
20260507032529 51 360 5.0 8.0 0.00 0.00 0.00 57 1018.3
20260507032033 50 360 3.0 6.0 0.00 0.00 0.00 57 1018.3
20260507031543 50 360 3.0 6.0 0.00 0.00 0.00 56 1018.3
20260507031029 49 360 3.0 5.0 0.00 0.00 0.00 58 1018.2
20260507030536 49 360 3.0 5.0 0.00 0.00 0.00 59 1018.2
20260507030045 50 360 3.0 5.0 0.00 0.00 0.00 58 1018.2
20260507025529 50 360 4.0 5.0 0.00 0.00 0.00 56 1018.2
20260507025029 49 360 3.0 5.0 0.00 0.00 0.00 59 1018.0
20260507024545 50 360 3.0 6.0 0.00 0.00 0.00 59 1018.1
20260507024031 50 360 4.0 6.0 0.00 0.00 0.00 56 1017.9
20260507023532 50 360 5.0 6.0 0.00 0.00 0.00 55 1017.9
20260507023040 50 360 4.0 6.0 0.00 0.00 0.00 56 1017.9
20260507022532 50 360 5.0 6.0 0.00 0.00 0.00 57 1017.9
20260507022031 50 360 4.0 6.0 0.00 0.00 0.00 57 1017.8
20260507021539 50 360 2.0 5.0 0.00 0.00 0.00 57 1017.8
20260507021030 50 360 3.0 5.0 0.00 0.00 0.00 56 1017.8
20260507020530 50 360 3.0 5.0 0.00 0.00 0.00 55 1017.9
20260507020048 50 360 2.0 4.0 0.00 0.00 0.00 57 1017.8
20260507015532 51 360 2.0 4.0 0.00 0.00 0.00 57 1017.8
20260507015029 52 360 2.0 4.0 0.00 0.00 0.00 54 1017.8
20260507014544 52 360 2.0 4.0 0.00 0.00 0.00 51 1017.8
20260507014032 53 360 1.0 5.0 0.00 0.00 0.00 50 1017.8
20260507013530 53 360 2.0 5.0 0.00 0.00 0.00 52 1017.7
20260507013049 54 360 1.0 3.0 0.00 0.00 0.00 49 1017.6
20260507012530 55 360 0.0 3.0 0.00 0.00 0.00 48 1017.6
20260507012030 55 331 1.0 3.0 0.00 0.00 0.00 46 1017.6
20260507011542 56 332 1.0 2.0 0.00 0.00 0.00 42 1017.6
20260507011030 56 332 0.0 2.0 0.00 0.00 0.00 43 1017.7
20260507010529 57 332 0.0 2.0 0.00 0.00 0.00 41 1017.7
20260507010045 57 0 0.0 1.0 0.00 0.00 0.00 41 1017.7
20260507005529 58 360 0.0 3.0 0.00 0.00 0.00 42 1017.8
20260507005029 58 0 0.0 3.0 0.00 0.00 0.00 40 1017.8
20260507004543 58 333 1.0 4.0 0.00 0.00 0.00 38 1017.7
20260507004031 58 333 1.0 6.0 0.00 0.00 0.00 37 1017.7
20260507003531 58 333 3.0 6.0 0.00 0.00 0.00 37 1017.6
20260507003045 58 324 3.0 7.0 0.00 0.00 0.00 36 1017.6
20260507002531 59 343 2.0 8.0 0.00 0.00 0.00 38 1017.7
20260507002030 59 328 3.0 10.0 0.00 0.00 0.00 37 1017.7
20260507001541 59 351 4.0 10.0 0.00 0.00 0.00 36 1017.6
20260507001029 59 339 4.0 10.0 0.00 0.00 0.00 36 1017.6
20260507000529 59 296 4.0 11.0 0.00 0.00 0.00 37 1017.6
20260507000053 59 321 6.0 11.0 0.00 0.00 0.00 36 1017.6
20260506235530 59 329 3.0 9.0 0.00 0.00 0.00 39 1017.7
20260506235030 59 360 5.0 9.0 0.00 0.00 0.00 39 1017.7
20260506234543 60 27 5.0 9.0 0.00 0.00 0.00 39 1017.7
20260506234033 60 5 3.0 10.0 0.00 0.00 0.00 39 1017.8
20260506233530 60 11 4.0 10.0 0.00 0.00 0.00 39 1017.8
20260506233045 60 5 4.0 11.0 0.00 0.00 0.00 38 1017.8
20260506232529 60 22 6.0 11.0 0.00 0.00 0.00 37 1017.8
20260506232032 60 16 6.0 11.0 0.00 0.00 0.00 38 1017.8
20260506231545 60 360 5.0 11.0 0.00 0.00 0.00 37 1017.8
20260506231030 60 13 4.0 11.0 0.00 0.00 0.00 39 1017.9
20260506230530 60 328 3.0 9.0 0.00 0.00 0.00 36 1017.9
20260506230047 60 313 2.0 13.0 0.00 0.00 0.00 37 1017.9
20260506225529 60 5 7.0 13.0 0.00 0.00 0.00 38 1017.9
20260506225029 60 343 8.0 14.0 0.00 0.00 0.00 36 1017.9
20260506224556 60 339 5.0 14.0 0.00 0.00 0.00 38 1017.9
20260506224032 60 355 6.0 12.0 0.00 0.00 0.00 39 1017.8
20260506223529 60 325 3.0 9.0 0.00 0.00 0.00 41 1017.8
20260506223045 60 355 2.0 9.0 0.00 0.00 0.00 38 1017.8
20260506222533 60 338 4.0 10.0 0.00 0.00 0.00 37 1017.9
20260506222049 60 319 3.0 11.0 0.00 0.00 0.00 38 1017.9
20260506221542 60 355 6.0 11.0 0.00 0.00 0.00 42 1017.9
20260506221029 60 5 5.0 10.0 0.00 0.00 0.00 37 1017.9
20260506220530 60 252 3.0 12.0 0.00 0.00 0.00 38 1018.0
20260506220041 60 333 5.0 15.0 0.00 0.00 0.00 40 1018.1
20260506215529 60 346 7.0 15.0 0.00 0.00 0.00 39 1018.1
20260506215030 60 29 4.0 12.0 0.00 0.00 0.00 40 1018.1
20260506214549 59 19 6.0 12.0 0.00 0.00 0.00 40 1018.3
20260506214029 59 324 5.0 12.0 0.00 0.00 0.00 38 1018.3
20260506213530 59 324 4.0 13.0 0.00 0.00 0.00 37 1018.3
20260506213044 60 277 4.0 13.0 0.00 0.00 0.00 40 1018.5
20260506212529 59 261 3.0 11.0 0.00 0.00 0.00 41 1018.5
20260506212033 59 351 5.0 11.0 0.00 0.00 0.00 38 1018.5
20260506211544 59 257 6.0 10.0 0.00 0.00 0.00 38 1018.6
20260506211030 59 336 6.0 15.0 0.00 0.00 0.00 38 1018.7
20260506210530 59 324 9.0 15.0 0.00 0.00 0.00 38 1018.9
20260506210043 59 309 4.0 10.0 0.00 0.00 0.00 43 1018.9
20260506205530 59 5 6.0 10.0 0.00 0.00 0.00 41 1018.9
20260506205030 58 349 2.0 13.0 0.00 0.00 0.00 42 1019.0
20260506204549 58 324 5.0 13.0 0.00 0.00 0.00 40 1019.1
20260506204029 58 344 6.0 13.0 0.00 0.00 0.00 40 1019.1
20260506203530 58 313 6.0 11.0 0.00 0.00 0.00 41 1019.1
20260506203051 58 335 4.0 12.0 0.00 0.00 0.00 40 1019.2
20260506202530 58 330 5.0 14.0 0.00 0.00 0.00 43 1019.3
20260506202030 58 331 7.0 14.0 0.00 0.00 0.00 44 1019.3
20260506201550 58 281 4.0 10.0 0.00 0.00 0.00 42 1019.4
20260506201030 59 274 6.0 11.0 0.00 0.00 0.00 42 1019.5
20260506200530 58 240 4.0 13.0 0.00 0.00 0.00 41 1019.6
20260506200042 59 340 8.0 15.0 0.00 0.00 0.00 38 1019.7
20260506195530 59 281 6.0 15.0 0.00 0.00 0.00 41 1019.6
20260506195030 59 331 8.0 15.0 0.00 0.00 0.00 45 1019.6
20260506194557 58 12 6.0 13.0 0.00 0.00 0.00 42 1019.6
20260506194033 57 19 5.0 14.0 0.00 0.00 0.00 41 1019.6
20260506193529 57 360 6.0 14.0 0.00 0.00 0.00 43 1019.6
20260506193043 57 347 9.0 14.0 0.00 0.00 0.00 40 1019.6
20260506192529 58 13 6.0 14.0 0.00 0.00 0.00 41 1019.7
20260506192030 58 34 6.0 14.0 0.00 0.00 0.00 39 1019.7
20260506191543 58 341 5.0 13.0 0.00 0.00 0.00 39 1019.8
20260506191030 58 5 4.0 12.0 0.00 0.00 0.00 43 1019.9
20260506190533 58 327 6.0 15.0 0.00 0.00 0.00 43 1019.7
20260506190044 57 348 5.0 15.0 0.00 0.00 0.00 42 1019.8
20260506185530 57 255 5.0 15.0 0.00 0.00 0.00 46 1019.6
20260506185032 56 312 4.0 13.0 0.00 0.00 0.00 41 1019.9
20260506184544 56 28 5.0 13.0 0.00 0.00 0.00 42 1019.8
20260506184030 56 328 6.0 16.0 0.00 0.00 0.00 40 1019.7
20260506183530 56 16 9.0 16.0 0.00 0.00 0.00 41 1019.8
20260506183039 56 360 8.0 13.0 0.00 0.00 0.00 41 1019.7
20260506182529 56 17 6.0 13.0 0.00 0.00 0.00 45 1019.8
20260506182030 56 360 7.0 12.0 0.00 0.00 0.00 43 1019.8
20260506181547 56 355 7.0 12.0 0.00 0.00 0.00 41 1019.9
20260506181031 55 342 4.0 14.0 0.00 0.00 0.00 43 1019.9
20260506180531 56 38 9.0 14.0 0.00 0.00 0.00 41 1020.0
20260506180050 56 5 2.0 9.0 0.00 0.00 0.00 43 1020.2
20260506175536 56 245 3.0 14.0 0.00 0.00 0.00 41 1020.3
20260506175032 56 12 6.0 14.0 0.00 0.00 0.00 43 1020.4
20260506174542 56 13 7.0 12.0 0.00 0.00 0.00 43 1020.4
20260506174032 55 331 5.0 12.0 0.00 0.00 0.00 46 1020.5
20260506173530 55 5 5.0 9.0 0.00 0.00 0.00 47 1020.5
20260506173045 54 335 3.0 11.0 0.00 0.00 0.00 40 1020.5
20260506172530 54 328 6.0 11.0 0.00 0.00 0.00 45 1020.5
20260506172030 54 26 8.0 11.0 0.00 0.00 0.00 44 1020.5
20260506171551 54 15 6.0 11.0 0.00 0.00 0.00 43 1020.6
20260506171058 54 9 7.0 11.0 0.00 0.00 0.00 45 1020.5
20260506170530 54 360 4.0 10.0 0.00 0.00 0.00 45 1020.4
20260506170049 54 348 4.0 10.0 0.00 0.00 0.00 44 1020.5
20260506165530 54 5 5.0 10.0 0.00 0.00 0.00 43 1020.5
20260506165031 53 360 3.0 10.0 0.00 0.00 0.00 50 1020.6
20260506164539 53 349 4.0 10.0 0.00 0.00 0.00 44 1020.6
20260506164029 53 342 5.0 10.0 0.00 0.00 0.00 47 1020.7
20260506163529 53 355 6.0 10.0 0.00 0.00 0.00 46 1020.7
20260506163045 53 37 4.0 10.0 0.00 0.00 0.00 44 1020.8
20260506162529 53 24 6.0 12.0 0.00 0.00 0.00 48 1020.7
20260506162029 53 344 4.0 14.0 0.00 0.00 0.00 52 1020.6
20260506161542 53 17 7.0 14.0 0.00 0.00 0.00 47 1020.6
20260506161031 53 360 8.0 13.0 0.00 0.00 0.00 46 1020.5
20260506160530 53 355 9.0 13.0 0.00 0.00 0.00 45 1020.4
20260506160043 53 25 9.0 13.0 0.00 0.00 0.00 48 1020.4